This is the latest recevied weather packets stored in our database for station/object W7TRD. If no packets are shown the sender has not sent any weather packets the latest 1 day(s).
| Time | Temp. | Humidity | Pressure | Rain* | Wind** | Luminosity | Snow |
|---|---|---|---|---|---|---|---|
| 1778014919 | 17.78° C | 75% | 1017.5 hPa | 0 mm | 0.45 m/s, 190° | 396 W/m² | - |
| 1778014616 | 17.78° C | 74% | 1017.5 hPa | 0 mm | 0.89 m/s, 304° | 503 W/m² | - |
| 1778014314 | 16.67° C | 77% | 1017.5 hPa | 0 mm | 0 m/s | 473 W/m² | - |
| 1778014011 | 16.67° C | 76% | 1017.8 hPa | 0 mm | 0.45 m/s, 182° | 450 W/m² | - |
| 1778013709 | 16.67° C | 75% | 1017.7 hPa | 0 mm | 0 m/s | 378 W/m² | - |
| 1778013406 | 16.67° C | 76% | 1017.6 hPa | 0 mm | 0.45 m/s, 199° | 365 W/m² | - |
| 1778013102 | 16.67° C | 77% | 1017.8 hPa | 0 mm | 0.89 m/s, 195° | 351 W/m² | - |
| 1778012798 | 16.11° C | 78% | 1017.9 hPa | 0 mm | 0 m/s | 308 W/m² | - |
| 1778012494 | 16.11° C | 78% | 1017.5 hPa | 0 mm | 0.89 m/s, 148° | 245 W/m² | - |
| 1778012191 | 16.11° C | 80% | 1017.9 hPa | 0 mm | 0 m/s | 205 W/m² | - |
| 1778011889 | 15.56° C | 81% | 1017.8 hPa | 0 mm | 0 m/s | 192 W/m² | - |
| 1778011587 | 15.56° C | 81% | 1017.8 hPa | 0 mm | 0 m/s | 168 W/m² | - |
| 1778011284 | 15.56° C | 81% | 1017.8 hPa | 0 mm | 0.89 m/s, 186° | 140 W/m² | - |
| 1778010980 | 15.56° C | 82% | 1017.9 hPa | 0 mm | 0 m/s | 108 W/m² | - |
| 1778010677 | 15.56° C | 81% | 1017.9 hPa | 0 mm | 0 m/s | 88 W/m² | - |
| 1778010374 | 15.56° C | 79% | 1017.8 hPa | 0 mm | 0 m/s | 85 W/m² | - |
| 1778010070 | 15.56° C | 79% | 1017.8 hPa | 0 mm | 0 m/s | 97 W/m² | - |
| 1778009767 | 15.56° C | 79% | 1017.7 hPa | 0 mm | 0 m/s | 111 W/m² | - |
| 1778009464 | 16.11° C | 78% | 1017.9 hPa | 0 mm | 0 m/s | 133 W/m² | - |
| 1778009163 | 15.56° C | 79% | 1018 hPa | 0 mm | 0 m/s | 157 W/m² | - |
| 1778008859 | 15.56° C | 79% | 1017.7 hPa | 0 mm | 0 m/s | 177 W/m² | - |
| 1778008558 | 16.11° C | 77% | 1017.8 hPa | 0 mm | 0 m/s | 190 W/m² | - |
| 1778008256 | 16.11° C | 78% | 1017.8 hPa | 0 mm | 0 m/s | 187 W/m² | - |
| 1778007956 | 15.56° C | 80% | 1017.9 hPa | 0 mm | 0 m/s | 190 W/m² | - |
| 1778007652 | 15.56° C | 83% | 1017.8 hPa | 0 mm | 0 m/s | 193 W/m² | - |
* Rain latest hour (hover to see other rain measurements)
** Current wind speed in m/s (hover to see current wind gust speed)